星链-4321 (STARLINK-4321 )

导读 | 星芒AI

STARLINK-4321 是 SpaceX Starlink 低轨卫星互联网项目中的一个组成部分,属于第四批发射的星链卫星之一。该卫星运行在约 550 公里的低地球轨道,旨在为全球用户提供高速、低延迟的宽带互联网服务。STARLINK-4321 采用先进的推进系统和激光通信技术,支持与其他星链卫星的高速数据传输,提升网络覆盖与稳定性。作为星链计划的一部分,该卫星有助于扩大偏远地区的网络接入,推动全球数字连接。

基本信息
目录编号:
53082
目录名称:
STARLINK-4321
国际标识:
2022-077AR
轨道中心:
EARTH
卫星名称:
星链-4321
卫星全名:
星链-4321 (STARLINK-4321 )
卫星状态:
在轨 (已飞行1213 天)
发射日期:
2022-07-11 UTC
国别 :
美国 (US)
星等 :
--
轨道信息
数据来源 国际轨道数据
星历时间: 2025-11-05T01:56:13+0800
8小时前
查看轨道信息
半长轴: 6941.143km
偏心率: 0.0000262
轨道倾角: 97.603°
近地点辐角 62.037°
升交点赤经 127.888°
平近点角 298.088°
近地点: 562.826km
远地点: 563.19km
周期: 95.919分钟
每日圈数: 15.012615
详细信息
固有亮度:
5
最大亮度:
2.5
卫星平台:
Starlink v1.5
覆盖范围:
全球
运营商:
太空探索技术公司
运营商所在国:
美国
制造商(研发单位):
太空探索技术公司
制造商所在国:
美国
使用方式:
暂无
卫星简介
星链(Starlink)计划是由太空探索技术公司(SpaceX)提出的一个巨型低轨卫星互联网星座项目,计划在2019年至2024年间在太空搭建由约1.2万颗卫星组成的“星链”网络,其中1584颗将部署在地球上空550千米处的近地轨道,并从2020年开始工作。该卫星仍在工作。
2D轨道图
3D轨道图
轨道高度分析图
轨道倾角分析图
轨道综合分析图
查看轨道综合分析图